[[{"header":{"parameterUnit":"m.s-1","parameterCategory":2,"la1":30.2991,"la2":30.254,"lo1":-89.0895,"lo2":-89.0444,"dy":0.0017,"dx":0.0017,"nx":28,"ny":28,"refTime":"2023-07-28T21:00:00:Z","depth":"0","parameterNumber":2,"parameterNumberName":"U-component_of_CURRENTS"},"data":[0,0,0,0,0,0,0,0,0,0,0,0,0,0,0,0,0,0,0,0,0,0,0,0,0,0,0,0,0,0,0,0,0,0,0,0,0,0,0,0,0,0,0,0,0,0,0,0,0,0,0,0,0,0,0,0,0,0,0.1998,0.1998,0,0.202,0.202,0.202,0.1994,0.1994,0.1993,0.1992,0.1962,0.1961,0.1961,0,0,0,0,0,0,0,0,0,0,0,0,0,0.1897,0.1899,0.1998,0.1998,0.1999,0.202,0.202,0.202,0.1994,0.1994,0.1993,0.1992,0.1962,0.1961,0.1961,0,0,0,0,0,0,0,0,0,0,0,0,0,0.1929,0.19,0.1998,0.1991,0.1991,0.202,0.202,0.202,0.1994,0.1993,0.1992,0.1992,0.1962,0.1961,0.1961,0.198,0,0,0.196,0.196,0,0,0,0,0,0,0,0,0.1927,0.1933,0.1991,0.1991,0.1991,0.2006,0.1973,0.2005,0.1995,0.199,0.1992,0.1991,0.1974,0.1973,0.1976,0.1978,0.1977,0.196,0.196,0.196,0.196,0,0,0,0,0,0,0,0.1925,0.1931,0.2003,0.1992,0.1992,0.1975,0.1978,0.1979,0.1984,0.199,0.1989,0.1997,0.1973,0.1976,0.1975,0.1976,0.196,0.196,0.196,0.196,0.2049,0.2052,0,0,0,0,0,0,0.1932,0.193,0.2003,0.2004,0.196,0.1978,0.1981,0.2,0.1985,0.1983,0.1998,0.1996,0.1977,0.1975,0.1973,0.2044,0.196,0.196,0.196,0.2047,0.205,0.2053,0,0,0,0,0,0,0.193,0.1939,0.2002,0.1969,0.1976,0.1981,0.2002,0.2001,0.2007,0.1992,0.1988,0.2006,0.1976,0.1974,0.1998,0.2041,0.196,0.1959,0.2044,0.2048,0.2051,0.2154,0,0,0,0,0,0,0.1928,0.1939,0.1956,0.197,0.1978,0.2028,0.2003,0.2002,0.2015,0.2012,0.1998,0.1994,0.1975,0.1999,0.1998,0.2039,0.1959,0.204,0.2045,0.205,0.2147,0.2161,0.2172,0,0,0,0,0,0.1924,0.1955,0.1957,0.1965,0.2002,0.203,0.2033,0.2029,0.2017,0.2029,0.203,0.1994,0.2028,0.2001,0.1999,0.2041,0.2038,0.2044,0.205,0.2142,0.2158,0.2172,0,0,0,0,0,0,0.1924,0.1956,0.1958,0.1998,0.2016,0.2027,0.2039,0.2038,0.2049,0.2043,0.2023,0.2021,0.2051,0.204,0.2011,0.2083,0.2029,0.2035,0.21,0.2115,0.2127,0.2116,0.1959,0,0,0,0,0,0.1933,0.196,0.1986,0.2017,0.2027,0.2035,0.2046,0.2045,0.2056,0.2059,0.2053,0.2057,0.2075,0.2089,0.2086,0.2133,0.2194,0.2162,0.2174,0.2185,0.2177,0.2301,0.2325,0.2071,0.2071,0.2071,0,0,0.1942,0.1963,0.1978,0.2018,0.2028,0.2055,0.2038,0.206,0.2084,0.2055,0.2083,0.2086,0.2092,0.2138,0.2153,0.2138,0.2311,0.2192,0.2201,0.2187,0.231,0.2335,0.2357,0.2075,0.2075,0.2074,0,0,0.1972,0.1991,0.2022,0.204,0.2066,0.2073,0.2084,0.2102,0.211,0.2145,0.2135,0.2175,0.2188,0.2219,0.2233,0.2318,0.2357,0.2318,0.2389,0.2512,0.2533,0.2553,0.2757,0.2794,0.2343,0.2343,0.2343,0,0.1984,0.2026,0.2036,0.2067,0.2087,0.2085,0.2119,0.2134,0.2159,0.2184,0.2162,0.2234,0.223,0.232,0.2346,0.2346,0.2446,0.2331,0.253,0.2549,0.2568,0.2771,0.281,0.2348,0.2348,0.2347,0.2347,0,0.2036,0.2066,0.2085,0.2125,0.2146,0.2175,0.2196,0.222,0.2227,0.225,0.2321,0.2341,0.2392,0.2409,0.2398,0.2533,0.2579,0.2519,0.2492,0.26,0.2808,0.2847,0.2356,0.2354,0.2353,0.2351,0,0,0.2086,0.2117,0.2125,0.2147,0.2178,0.2205,0.2246,0.2299,0.2353,0.2375,0.2468,0.25,0.2518,0.2536,0.2553,0.2654,0.2896,0.2646,0.265,0.2852,0.3253,0.3256,0.3299,0.2875,0.288,0.2884,0.3382,0,0.2129,0.2182,0.2191,0.2247,0.228,0.2289,0.2338,0.2382,0.2422,0.251,0.2554,0.2631,0.2569,0.2624,0.2713,0.2824,0.2987,0.2771,0.3113,0.3125,0.3114,0.3338,0.3267,0.3698,0.342,0.3426,0.3431,0,0.2198,0.2217,0.2271,0.2317,0.2334,0.2368,0.2452,0.2494,0.2597,0.2636,0.2716,0.2753,0.29,0.2828,0.3114,0.2984,0.3132,0.3227,0.3248,0.3223,0.3196,0.3525,0.3779,0.3673,0.349,0.3486,0.3481,0,0.2245,0.2288,0.2326,0.2341,0.2389,0.2424,0.2455,0.2539,0.2602,0.2734,0.282,0.2953,0.3072,0.3222,0.3379,0.3284,0.3721,0.362,0.3795,0.3802,0.379,0.3784,0.3966,0.3872,0.3871,0.3869,0.3868,0,0.2307,0.2346,0.2349,0.2376,0.2443,0.2462,0.2558,0.2608,0.272,0.2834,0.2893,0.3037,0.317,0.3398,0.3509,0.3801,0.385,0.3875,0.3933,0.3833,0.3825,0.376,0.3654,0.3888,0.3884,0.388,0.3877,0,0.2381,0.2373,0.2431,0.2462,0.2471,0.2528,0.2601,0.2677,0.2773,0.2937,0.2992,0.3186,0.3473,0.3649,0.3965,0.401,0.4166,0.4347,0.4256,0.429,0.4258,0.4159,0.4228,0.4108,0.4641,0.4644,0.4646,0,0.2431,0.2463,0.2493,0.251,0.2526,0.2585,0.263,0.2703,0.2786,0.3028,0.3129,0.3438,0.3626,0.4104,0.429,0.4594,0.4371,0.4678,0.4431,0.4312,0.4249,0.398,0.385,0.4536,0.4537,0.4538,0.4539,0,0.252,0.2526,0.2545,0.2578,0.2612,0.2659,0.2726,0.2788,0.2907,0.3043,0.3257,0.3424,0.3895,0.4153,0.4535,0.4675,0.4429,0.4709,0.461,0.4214,0.3914,0.3807,0.4202,0.455,0.4549,0.4548,0.4548,0.4547,0.2571,0.2599,0.2597,0.2635,0.2663,0.2695,0.2721,0.2809,0.2917,0.3093,0.3288,0.3526,0.3944,0.4449,0.4566,0.4723,0.457,0.4641,0.457,0.4338,0.4063,0.4506,0.4851,0.4852,0.4852,0.4853,0.4853,0,0.2596,0.2601,0.2645,0.2648,0.2664,0.2688,0.2751,0.2765,0.2852,0.3082,0.3244,0.3662,0.3984,0.4297,0.4646,0.4602,0.4345,0.4497,0.4103,0.4007,0.4495,0.4322,0.4534,0.4534,0.4534,0.4534,0.4534,0.4534,0.2588,0.2603,0.2619,0.2618,0.2626,0.2611,0.2625,0.2671,0.2797,0.3008,0.3237,0.3462,0.3896,0.4314,0.4433,0.4377,0.4048,0.3944,0.3835,0.4182,0.4186,0.419,0.4003,0.4144,0.4144,0.321,0.3204,0.3198]},{"header":{"parameterUnit":"m.s-1","parameterCategory":2,"la1":30.2991,"la2":30.254,"lo1":-89.0895,"lo2":-89.0444,"dy":0.0017,"dx":0.0017,"nx":28,"ny":28,"refTime":"2023-07-28T21:00:00:Z","depth":"0","parameterNumber":3,"parameterNumberName":"V-component_of_CURRENTS"},"data":[0,0,0,0,0,0,0,0,0,0,0,0,0,0,0,0,0,0,0,0,0,0,0,0,0,0,0,0,0,0,0,0,0,0,0,0,0,0,0,0,0,0,0,0,0,0,0,0,0,0,0,0,0,0,0,0,0,0,-0.082,-0.082,0,-0.0897,-0.0898,-0.0899,-0.0964,-0.0965,-0.0965,-0.0966,-0.108,-0.1082,-0.1085,0,0,0,0,0,0,0,0,0,0,0,0,0,-0.0759,-0.076,-0.0819,-0.082,-0.0821,-0.0897,-0.0898,-0.09,-0.0964,-0.0965,-0.0965,-0.0966,-0.1079,-0.1082,-0.1085,0,0,0,0,0,0,0,0,0,0,0,0,0,-0.0808,-0.076,-0.0819,-0.0861,-0.0866,-0.0897,-0.0898,-0.09,-0.0964,-0.0965,-0.0965,-0.0966,-0.1078,-0.1082,-0.1086,-0.1093,0,0,-0.1097,-0.1099,0,0,0,0,0,0,0,0,-0.0805,-0.081,-0.0854,-0.0858,-0.0863,-0.092,-0.0919,-0.0966,-0.0964,-0.0928,-0.0966,-0.0967,-0.1028,-0.1036,-0.1051,-0.1099,-0.1104,-0.1098,-0.11,-0.1102,-0.1103,0,0,0,0,0,0,0,-0.0801,-0.0807,-0.0852,-0.0855,-0.086,-0.0887,-0.0895,-0.0928,-0.0975,-0.0932,-0.0936,-0.0942,-0.1031,-0.1047,-0.1054,-0.1105,-0.1098,-0.1101,-0.1103,-0.1105,-0.1174,-0.1173,0,0,0,0,0,0,-0.0786,-0.0804,-0.085,-0.0854,-0.0833,-0.0887,-0.0896,-0.0903,-0.0974,-0.0985,-0.0941,-0.0944,-0.104,-0.105,-0.1059,-0.1043,-0.1102,-0.1105,-0.1107,-0.1174,-0.1174,-0.1173,0,0,0,0,0,0,-0.0784,-0.0789,-0.0846,-0.0829,-0.0838,-0.0887,-0.0894,-0.0904,-0.0919,-0.098,-0.0992,-0.0946,-0.1041,-0.1053,-0.1077,-0.105,-0.1107,-0.111,-0.1175,-0.1174,-0.1173,-0.1032,0,0,0,0,0,0,-0.0782,-0.0788,-0.0785,-0.0828,-0.0839,-0.0847,-0.0894,-0.0905,-0.092,-0.0926,-0.0989,-0.1,-0.1043,-0.1071,-0.1081,-0.1056,-0.1113,-0.1175,-0.1175,-0.1174,-0.1037,-0.1026,-0.1017,0,0,0,0,0,-0.078,-0.0759,-0.0785,-0.079,-0.0834,-0.0845,-0.0852,-0.0892,-0.0919,-0.0912,-0.0958,-0.0998,-0.1073,-0.1073,-0.1085,-0.106,-0.1176,-0.1175,-0.1174,-0.1041,-0.1028,-0.1017,0,0,0,0,0,0,-0.072,-0.0765,-0.0794,-0.0787,-0.081,-0.0855,-0.0848,-0.0884,-0.0915,-0.0921,-0.0988,-0.1001,-0.1012,-0.1061,-0.106,-0.1082,-0.1133,-0.1135,-0.1029,-0.1017,-0.1007,-0.0932,-0.1117,0,0,0,0,0,-0.0708,-0.071,-0.0756,-0.0746,-0.0755,-0.0804,-0.0815,-0.0842,-0.0876,-0.0891,-0.0936,-0.0985,-0.1017,-0.1036,-0.1072,-0.1081,-0.1071,-0.1078,-0.1068,-0.1059,-0.1008,-0.0995,-0.0977,-0.117,-0.117,-0.117,0,0,-0.0676,-0.0704,-0.0702,-0.0734,-0.0756,-0.0747,-0.0812,-0.0814,-0.0803,-0.0898,-0.0893,-0.0948,-0.1012,-0.1018,-0.1028,-0.1055,-0.0995,-0.1058,-0.1049,-0.1002,-0.0991,-0.0972,-0.0955,-0.1169,-0.1169,-0.1169,0,0,-0.0603,-0.0643,-0.0618,-0.0636,-0.0665,-0.0695,-0.0692,-0.0735,-0.0751,-0.076,-0.0822,-0.0846,-0.091,-0.0933,-0.0959,-0.0917,-0.0941,-0.0953,-0.0839,-0.0827,-0.0809,-0.0794,-0.0723,-0.0702,-0.095,-0.0949,-0.0949,0,-0.056,-0.0545,-0.0607,-0.0589,-0.0585,-0.0664,-0.0626,-0.0653,-0.0696,-0.0686,-0.0738,-0.0789,-0.0856,-0.0838,-0.0831,-0.0887,-0.0869,-0.0875,-0.0807,-0.0792,-0.0779,-0.0711,-0.0689,-0.0942,-0.0943,-0.0944,-0.0945,0,-0.0472,-0.0463,-0.0443,-0.0452,-0.0458,-0.0436,-0.0483,-0.0487,-0.0526,-0.0549,-0.0541,-0.0623,-0.0641,-0.0687,-0.0747,-0.0692,-0.0702,-0.0791,-0.0823,-0.0749,-0.0684,-0.0664,-0.0932,-0.0935,-0.0937,-0.0939,0,0,-0.0347,-0.0376,-0.0364,-0.0345,-0.0382,-0.0367,-0.0351,-0.034,-0.0296,-0.0359,-0.0289,-0.0374,-0.0412,-0.0441,-0.0524,-0.0526,-0.0429,-0.0607,-0.061,-0.0506,-0.0344,-0.0327,-0.0305,-0.0511,-0.0508,-0.0505,-0.0323,0,-0.0247,-0.0187,-0.0229,-0.0153,-0.0122,-0.0183,-0.0149,-0.0157,-0.0175,-0.0133,-0.0206,-0.0183,-0.0323,-0.0317,-0.0339,-0.0405,-0.0376,-0.0465,-0.0455,-0.0452,-0.0424,-0.0282,-0.0316,-0.0155,-0.0304,-0.0301,-0.0298,0,-0.013,-0.0111,-0.0028,0.0002,0.0015,0.005,0.0104,0.0123,0.0135,0.0128,0.0127,0.0069,0.0079,-0.0066,-0.0086,-0.0137,-0.0205,-0.0266,-0.0263,-0.0274,-0.04,-0.0264,-0.0115,-0.0405,-0.0269,-0.0271,-0.0273,0,0.0003,0.0046,0.0119,0.0126,0.0138,0.0186,0.0204,0.022,0.027,0.0316,0.0377,0.0339,0.0369,0.0264,0.0133,0.0034,0.0128,-0.0039,-0.0068,-0.0066,-0.0101,-0.0108,-0.0203,-0.0019,-0.002,-0.002,-0.0021,0,0.013,0.0197,0.0193,0.0234,0.0348,0.0318,0.0445,0.0452,0.0513,0.062,0.0536,0.0634,0.045,0.0452,0.0278,0.0221,0.0249,0.0031,-0.0002,-0.0052,-0.0057,-0.0321,-0.0481,-0.0013,-0.0015,-0.0016,-0.0017,0,0.0266,0.0256,0.0346,0.0384,0.041,0.0496,0.0582,0.067,0.0716,0.0864,0.09,0.091,0.0925,0.0765,0.0651,0.0456,0.0227,0.0317,0.0312,0.0274,-0.0084,-0.0234,-0.0237,-0.0351,0.032,0.0322,0.0323,0,0.0339,0.0396,0.0461,0.0512,0.0537,0.0644,0.072,0.0771,0.0867,0.1038,0.1134,0.1215,0.1275,0.1163,0.0866,0.0665,0.0367,0.0469,0.0245,-0.0029,-0.0222,-0.0321,-0.0427,0.027,0.0271,0.0272,0.0272,0,0.0475,0.0493,0.0547,0.0645,0.0734,0.0842,0.0957,0.1061,0.1154,0.1293,0.1481,0.1561,0.1488,0.1304,0.1044,0.0824,0.0262,0.0476,0.0176,-0.0239,-0.0332,-0.0485,0.0104,0.0279,0.0279,0.0278,0.0278,0.0277,0.0569,0.0627,0.0679,0.0775,0.0878,0.1012,0.1113,0.1247,0.1425,0.1639,0.1719,0.1892,0.1606,0.1249,0.0945,0.0323,0.0324,0.0053,-0.0083,-0.014,-0.0321,0.0332,0.0452,0.0453,0.0453,0.0453,0.0453,0,0.065,0.0694,0.0796,0.0904,0.102,0.1058,0.1244,0.135,0.1553,0.1814,0.198,0.1997,0.1559,0.1089,0.0325,-0.0164,-0.0397,-0.0454,-0.0671,-0.0742,-0.0177,-0.0262,-0.0271,-0.0271,-0.027,-0.027,-0.027,-0.0269,0.0688,0.0769,0.0808,0.0987,0.1074,0.1238,0.1337,0.1513,0.1713,0.2033,0.2228,0.2367,0.2013,0.0553,-0.0522,-0.0797,-0.1182,-0.1203,-0.1379,-0.1119,-0.1086,-0.1055,-0.1177,-0.1377,-0.1379,-0.1928,-0.1934,-0.1938]}],[{"header":{"parameterUnit":"m.s-1","parameterCategory":2,"la1":30.2991,"la2":30.254,"lo1":-89.0895,"lo2":-89.0444,"dy":0.0017,"dx":0.0017,"nx":28,"ny":28,"refTime":"2023-07-28T21:00:00:Z","depth":"2","parameterNumber":2,"parameterNumberName":"U-component_of_CURRENTS"},"data":[0,0,0,0,0,0,0,0,0,0,0,0,0,0,0,0,0,0,0,0,0,0,0,0,0,0,0,0,0,0,0,0,0,0,0,0,0,0,0,0,0,0,0,0,0,0,0,0,0,0,0,0,0,0,0,0,0,0,0.1541,0.1542,0,0.1616,0.1617,0.1618,0.1639,0.1639,0.1638,0.1638,0.1729,0.1732,0.1735,0,0,0,0,0,0,0,0,0,0,0,0,0,0.1425,0.1427,0.1541,0.1542,0.1543,0.1616,0.1617,0.1618,0.1639,0.1638,0.1638,0.1638,0.1728,0.1731,0.1735,0,0,0,0,0,0,0,0,0,0,0,0,0,0.1484,0.1427,0.1541,0.1563,0.1566,0.1616,0.1617,0.1618,0.1639,0.1638,0.1638,0.1638,0.1727,0.1731,0.1735,0.177,0,0,0.1748,0.1749,0,0,0,0,0,0,0,0,0.1481,0.1488,0.1559,0.1562,0.1565,0.1619,0.161,0.167,0.1639,0.161,0.1638,0.1637,0.1695,0.1702,0.1715,0.1774,0.1778,0.1748,0.1751,0.1752,0.1753,0,0,0,0,0,0,0,0.1476,0.1485,0.157,0.156,0.1564,0.1573,0.158,0.1621,0.1654,0.1612,0.1614,0.1625,0.1696,0.1711,0.1717,0.178,0.1748,0.1752,0.1754,0.1756,0.1998,0.2001,0,0,0,0,0,0,0.147,0.1481,0.1567,0.1572,0.1522,0.1575,0.1584,0.1601,0.1653,0.1661,0.1625,0.1626,0.1704,0.1712,0.1721,0.1887,0.1752,0.1756,0.1758,0.1994,0.1999,0.2003,0,0,0,0,0,0,0.1467,0.1477,0.1564,0.1529,0.154,0.1578,0.1597,0.1603,0.1633,0.1663,0.167,0.1651,0.1704,0.1715,0.1794,0.1886,0.1758,0.1762,0.1989,0.1995,0.2001,0.2142,0,0,0,0,0,0,0.1464,0.1476,0.1489,0.1529,0.1542,0.1616,0.1598,0.1605,0.1639,0.1641,0.1687,0.1694,0.1705,0.1788,0.1798,0.1889,0.1765,0.1984,0.1992,0.1999,0.2132,0.2152,0.2169,0,0,0,0,0,0.1459,0.149,0.149,0.15,0.1559,0.1618,0.1627,0.165,0.1641,0.1671,0.1709,0.1693,0.1843,0.1794,0.1805,0.19,0.198,0.199,0.1998,0.2124,0.2148,0.2168,0,0,0,0,0,0,0.1445,0.1496,0.1497,0.1539,0.1581,0.1622,0.1652,0.1662,0.1713,0.1718,0.1734,0.1747,0.1858,0.1854,0.18,0.1993,0.1913,0.1925,0.2005,0.2028,0.2046,0.2011,0.1768,0,0,0,0,0,0.1447,0.1486,0.1528,0.1564,0.1586,0.1619,0.1645,0.1664,0.171,0.1731,0.1767,0.182,0.1902,0.1941,0.1996,0.209,0.2074,0.2162,0.218,0.2195,0.2177,0.2255,0.2278,0.2032,0.2032,0.2032,0,0,0.145,0.1483,0.1504,0.1564,0.1595,0.1661,0.1635,0.1688,0.1755,0.1735,0.1838,0.1882,0.1941,0.2061,0.2111,0.2069,0.2261,0.2207,0.222,0.2192,0.2267,0.229,0.2311,0.2038,0.2037,0.2036,0,0,0.1486,0.1507,0.1555,0.1603,0.1661,0.1695,0.1715,0.1772,0.181,0.1909,0.1931,0.2016,0.2124,0.2189,0.2237,0.2384,0.2356,0.242,0.2487,0.2566,0.2586,0.2603,0.2619,0.2637,0.2429,0.2429,0.243,0,0.1483,0.155,0.1578,0.1645,0.1687,0.1717,0.1782,0.1845,0.1924,0.196,0.1963,0.2142,0.219,0.2342,0.2406,0.2426,0.2439,0.24,0.2588,0.2605,0.262,0.2632,0.2649,0.2437,0.2436,0.2435,0.2435,0,0.156,0.1619,0.1657,0.1752,0.1804,0.1867,0.1946,0.2007,0.2054,0.2106,0.2246,0.2321,0.2412,0.2477,0.2494,0.2646,0.261,0.2602,0.2524,0.2653,0.2658,0.2673,0.2448,0.2446,0.2443,0.2441,0,0,0.1539,0.1679,0.1694,0.1735,0.1861,0.1898,0.203,0.213,0.2188,0.2302,0.239,0.2565,0.2572,0.2625,0.267,0.2748,0.2885,0.2728,0.2728,0.2727,0.3025,0.2819,0.2815,0.2921,0.2924,0.2927,0.2985,0,0.1586,0.1699,0.1775,0.1886,0.1941,0.202,0.2124,0.222,0.2306,0.2402,0.2511,0.2616,0.2646,0.2692,0.2791,0.2857,0.2932,0.2866,0.2911,0.2911,0.2701,0.2829,0.2676,0.2699,0.3,0.3002,0.3004,0,0.1634,0.1701,0.1804,0.1914,0.1944,0.2023,0.2138,0.2239,0.2394,0.2459,0.2587,0.2655,0.2813,0.2803,0.2988,0.2948,0.2995,0.3036,0.304,0.2797,0.2734,0.2621,0.2715,0.3029,0.3027,0.3025,0.3023,0,0.1565,0.1714,0.1778,0.1827,0.1971,0.2022,0.21,0.2243,0.232,0.2484,0.2552,0.2727,0.2821,0.2933,0.3022,0.3026,0.3175,0.3188,0.3042,0.3026,0.2871,0.2833,0.3305,0.3305,0.3304,0.3304,0.3304,0,0.157,0.1621,0.1744,0.178,0.1846,0.1961,0.2048,0.215,0.2301,0.2399,0.2561,0.2663,0.2866,0.2972,0.304,0.3065,0.3195,0.3054,0.304,0.2913,0.2881,0.3136,0.3116,0.3306,0.3306,0.3306,0.3305,0,0.1485,0.1578,0.1644,0.1776,0.1816,0.1853,0.2006,0.207,0.2222,0.2359,0.2416,0.2647,0.2786,0.2916,0.3083,0.3061,0.3109,0.3077,0.2871,0.2828,0.2906,0.2893,0.2946,0.294,0.2934,0.293,0.2926,0,0.145,0.1478,0.16,0.1636,0.1698,0.1781,0.1846,0.201,0.209,0.2337,0.2393,0.2581,0.2672,0.2796,0.2838,0.2876,0.2988,0.2696,0.2668,0.2894,0.2877,0.2872,0.2867,0.2543,0.2537,0.2531,0.2527,0,0.1366,0.1408,0.1456,0.1533,0.1598,0.1675,0.1783,0.183,0.2033,0.2147,0.2302,0.2385,0.2533,0.2519,0.2531,0.2534,0.2672,0.2575,0.2933,0.2613,0.2507,0.249,0.2501,0.2478,0.2483,0.2487,0.2489,0.2491,0.1277,0.1285,0.135,0.1421,0.1491,0.1555,0.1594,0.1714,0.1807,0.1968,0.2108,0.2186,0.2254,0.2198,0.2175,0.2194,0.2351,0.229,0.2312,0.2339,0.2238,0.2123,0.2002,0.2004,0.2006,0.2007,0.2009,0,0.1162,0.1202,0.1247,0.132,0.1358,0.1451,0.1544,0.157,0.1645,0.1789,0.1888,0.1756,0.1762,0.187,0.1837,0.1806,0.1859,0.1747,0.1847,0.1894,0.1937,0.182,0.1472,0.147,0.1468,0.1467,0,0,0.1097,0.11,0.114,0.1171,0.1242,0.1278,0.1321,0.1367,0.145,0.1455,0.1504,0.1649,0.1763,0.157,0.1568,0.1536,0.1702,0.148,0.1912,0.2076,0.2117,0.2249,0.2119,0,0,0,0,0]},{"header":{"parameterUnit":"m.s-1","parameterCategory":2,"la1":30.2991,"la2":30.254,"lo1":-89.0895,"lo2":-89.0444,"dy":0.0017,"dx":0.0017,"nx":28,"ny":28,"refTime":"2023-07-28T21:00:00:Z","depth":"2","parameterNumber":3,"parameterNumberName":"V-component_of_CURRENTS"},"data":[0,0,0,0,0,0,0,0,0,0,0,0,0,0,0,0,0,0,0,0,0,0,0,0,0,0,0,0,0,0,0,0,0,0,0,0,0,0,0,0,0,0,0,0,0,0,0,0,0,0,0,0,0,0,0,0,0,0,-0.0261,-0.0261,0,-0.0231,-0.023,-0.023,-0.0234,-0.0234,-0.0235,-0.0236,-0.0229,-0.0228,-0.0227,0,0,0,0,0,0,0,0,0,0,0,0,0,-0.0298,-0.0298,-0.0261,-0.0261,-0.0261,-0.0231,-0.023,-0.023,-0.0234,-0.0234,-0.0235,-0.0236,-0.0229,-0.0228,-0.0227,0,0,0,0,0,0,0,0,0,0,0,0,0,-0.0276,-0.0298,-0.0261,-0.0259,-0.0259,-0.0231,-0.023,-0.023,-0.0234,-0.0235,-0.0235,-0.0236,-0.0229,-0.0228,-0.0227,-0.0204,0,0,-0.0224,-0.0223,0,0,0,0,0,0,0,0,-0.0277,-0.0275,-0.026,-0.0259,-0.0259,-0.0237,-0.0241,-0.0223,-0.0233,-0.0243,-0.0236,-0.0236,-0.0233,-0.0232,-0.0224,-0.0204,-0.0204,-0.0224,-0.0223,-0.0223,-0.0222,0,0,0,0,0,0,0,-0.0279,-0.0276,-0.0249,-0.026,-0.0259,-0.0252,-0.0249,-0.0237,-0.0234,-0.0242,-0.0242,-0.0239,-0.0233,-0.0224,-0.0223,-0.0204,-0.0224,-0.0223,-0.0222,-0.0222,-0.0153,-0.0152,0,0,0,0,0,0,-0.0284,-0.0277,-0.025,-0.0248,-0.0271,-0.025,-0.0248,-0.0243,-0.0234,-0.0233,-0.0239,-0.024,-0.0226,-0.0225,-0.0223,-0.0138,-0.0223,-0.0222,-0.0221,-0.0154,-0.0153,-0.0152,0,0,0,0,0,0,-0.0285,-0.0282,-0.0251,-0.0263,-0.0258,-0.0249,-0.0243,-0.0242,-0.0227,-0.0231,-0.0231,-0.0225,-0.0226,-0.0225,-0.0199,-0.0141,-0.0221,-0.022,-0.0156,-0.0154,-0.0152,-0.0006,0,0,0,0,0,0,-0.0286,-0.0282,-0.0274,-0.0263,-0.0258,-0.0215,-0.0243,-0.0241,-0.0225,-0.0226,-0.0219,-0.0219,-0.0227,-0.0201,-0.0198,-0.0141,-0.022,-0.0157,-0.0155,-0.0153,-0.0012,0.0001,0.0012,0,0,0,0,0,-0.0287,-0.0258,-0.0273,-0.027,-0.0249,-0.0213,-0.0208,-0.0205,-0.0223,-0.0199,-0.0203,-0.0219,-0.0185,-0.0198,-0.0196,-0.0137,-0.0158,-0.0156,-0.0153,-0.0018,-0.0002,0.0011,0,0,0,0,0,0,-0.0253,-0.0256,-0.0272,-0.0243,-0.0227,-0.0213,-0.0185,-0.0197,-0.018,-0.0181,-0.0199,-0.0198,-0.0155,-0.0176,-0.0191,-0.0116,-0.0176,-0.0173,-0.0074,-0.006,-0.0048,-0.0019,-0.0219,0,0,0,0,0,-0.0248,-0.0234,-0.0234,-0.0205,-0.0196,-0.0195,-0.018,-0.0179,-0.0167,-0.0161,-0.0158,-0.0157,-0.0141,-0.0126,-0.0121,-0.0074,-0.0135,-0.004,-0.0028,-0.0018,0.0004,-0.0058,-0.005,-0.0143,-0.0143,-0.0143,0,0,-0.022,-0.0224,-0.0211,-0.0198,-0.0185,-0.0136,-0.0186,-0.0149,-0.01,-0.0162,-0.0092,-0.0114,-0.0124,-0.007,-0.0052,-0.0076,-0.0025,-0.0014,-0.0004,0.0012,-0.0055,-0.0046,-0.0038,-0.0141,-0.0141,-0.0142,0,0,-0.014,-0.0165,-0.0118,-0.0105,-0.0087,-0.0085,-0.0074,-0.0057,-0.0041,0.0014,-0.0023,-0.0013,0.0022,0.0026,0.0032,0.0109,0.0034,0.0107,0.0208,0.0148,0.0155,0.0161,0.0089,0.0087,0.0121,0.0122,0.0122,0,-0.0101,-0.0057,-0.0094,-0.0042,-0.0014,-0.0057,0.0015,0.0032,0.0058,0.0078,0.0058,0.0091,0.0077,0.0134,0.0166,0.0143,0.0081,0.0162,0.0165,0.0169,0.0173,0.0097,0.0093,0.0129,0.0128,0.0127,0.0127,0,0.0014,0.005,0.0084,0.0126,0.015,0.0203,0.021,0.0237,0.0239,0.0247,0.0295,0.027,0.0287,0.0285,0.0263,0.0291,0.023,0.0181,0.0133,0.0191,0.0107,0.01,0.0139,0.0137,0.0135,0.0133,0,0,0.0115,0.0158,0.0173,0.0205,0.0239,0.0269,0.0348,0.0399,0.0436,0.0456,0.051,0.0536,0.0491,0.0492,0.0446,0.0407,0.0376,0.0321,0.0314,0.026,0.0227,0.0093,0.0071,0.0321,0.0321,0.0321,0.0156,0,0.0226,0.033,0.0333,0.0444,0.0493,0.048,0.055,0.0579,0.0591,0.0624,0.0599,0.0625,0.0579,0.0577,0.0542,0.0412,0.0367,0.0425,0.0171,0.0164,0.0045,0.0062,0.0111,-0.004,0.0149,0.0148,0.0147,0,0.0343,0.039,0.0508,0.0568,0.0592,0.0654,0.0716,0.0774,0.0797,0.0803,0.0819,0.0774,0.0758,0.0683,0.0531,0.0565,0.0424,0.0312,0.0302,0.0125,0.0017,-0.0068,-0.006,0.0135,0.0136,0.0137,0.0137,0,0.0396,0.0511,0.0596,0.0622,0.0691,0.0748,0.0792,0.0831,0.0868,0.0903,0.091,0.0885,0.0848,0.0707,0.0496,0.0511,0.0272,0.0253,0.0001,-0.0011,-0.0044,-0.006,0.0131,0.0131,0.0132,0.0132,0.0133,0,0.0485,0.0552,0.0626,0.0665,0.0764,0.0804,0.0895,0.0929,0.0974,0.1013,0.0995,0.0987,0.0846,0.0695,0.0515,0.0225,0.0281,0.0021,-0.006,0.0004,-0.0005,0.009,0.0087,0.0126,0.0127,0.0129,0.013,0,0.0503,0.0559,0.0647,0.0745,0.0781,0.0844,0.0937,0.0992,0.1033,0.1079,0.1092,0.1042,0.0847,0.0647,0.038,0.022,-0.0031,-0.016,-0.0084,-0.0154,-0.0269,-0.0262,-0.0415,-0.0421,-0.0427,-0.0431,-0.0435,0,0.0511,0.0563,0.0676,0.0726,0.0773,0.0869,0.0933,0.101,0.1063,0.1095,0.1111,0.0966,0.0824,0.0386,0.0111,-0.0236,-0.0221,-0.042,-0.0376,-0.0261,-0.0324,-0.0309,-0.0295,-0.0359,-0.0362,-0.0364,-0.0366,0,0.0522,0.0564,0.0629,0.0735,0.0819,0.0907,0.1009,0.1054,0.1141,0.115,0.1138,0.1024,0.064,0.03,-0.0172,-0.0372,-0.0348,-0.0482,-0.0383,-0.0244,-0.0226,-0.0282,-0.0267,-0.0385,-0.0383,-0.0382,-0.0381,-0.038,0.0522,0.0565,0.0662,0.076,0.0849,0.096,0.1044,0.1124,0.1186,0.1205,0.1095,0.0913,0.059,-0.005,-0.0347,-0.0583,-0.0586,-0.0646,-0.063,-0.0614,-0.0594,-0.0588,-0.0811,-0.0812,-0.0812,-0.0812,-0.0813,0,0.0544,0.0606,0.0688,0.0824,0.0925,0.0981,0.1109,0.118,0.1255,0.1177,0.1091,0.068,0.0264,-0.0052,-0.0435,-0.0722,-0.0639,-0.0775,-0.0584,-0.0567,-0.0552,-0.0518,-0.0721,-0.0721,-0.0721,-0.0721,0,0,0.0567,0.0654,0.0707,0.088,0.0978,0.1137,0.1222,0.1289,0.1281,0.1127,0.0981,0.071,0.031,0.0042,-0.0303,-0.0485,-0.044,-0.0513,-0.0567,-0.0284,-0.0263,-0.0477,-0.0411,0,0,0,0,0]}],[{"header":{"parameterUnit":"m.s-1","parameterCategory":2,"la1":30.2991,"la2":30.254,"lo1":-89.0895,"lo2":-89.0444,"dy":0.0017,"dx":0.0017,"nx":28,"ny":28,"refTime":"2023-07-28T21:00:00:Z","depth":"4","parameterNumber":2,"parameterNumberName":"U-component_of_CURRENTS"},"data":[0,0,0,0,0,0,0,0,0,0,0,0,0,0,0,0,0,0,0,0,0,0,0,0,0,0,0,0,0,0,0,0,0,0,0,0,0,0,0,0,0,0,0,0,0,0,0,0,0,0,0,0,0,0,0,0,0,0,0.0641,0.0642,0,0.0713,0.0714,0.0715,0.078,0.078,0.0781,0.0781,0.0856,0.0858,0.0859,0,0,0,0,0,0,0,0,0,0,0,0,0,0.0558,0.0559,0.0641,0.0642,0.0642,0.0713,0.0714,0.0716,0.078,0.078,0.0781,0.0781,0.0856,0.0857,0.0859,0,0,0,0,0,0,0,0,0,0,0,0,0,0.0612,0.056,0.0641,0.068,0.0684,0.0713,0.0714,0.0716,0.0779,0.078,0.0781,0.0781,0.0855,0.0857,0.086,0.0861,0,0,0.0867,0.0868,0,0,0,0,0,0,0,0,0.0609,0.0615,0.0674,0.0677,0.0682,0.0735,0.0712,0.0763,0.0779,0.0747,0.0781,0.0782,0.0813,0.0819,0.0836,0.0865,0.0868,0.0867,0.0869,0.087,0.087,0,0,0,0,0,0,0,0.0605,0.0612,0.0673,0.0674,0.0679,0.0693,0.0702,0.0723,0.0778,0.075,0.0754,0.0756,0.0816,0.0834,0.0838,0.0869,0.0867,0.0869,0.0871,0.0872,0.0936,0.0936,0,0,0,0,0,0,0.0588,0.0609,0.0671,0.0675,0.0642,0.0694,0.0704,0.072,0.0778,0.0787,0.0755,0.0759,0.0829,0.0835,0.0841,0.0896,0.087,0.0872,0.0873,0.0936,0.0936,0.0936,0,0,0,0,0,0,0.0587,0.0594,0.0668,0.064,0.065,0.0694,0.0712,0.0721,0.0765,0.0782,0.0791,0.0792,0.083,0.0838,0.0884,0.0897,0.0873,0.0875,0.0935,0.0936,0.0936,0.0974,0,0,0,0,0,0,0.0584,0.0593,0.0618,0.0639,0.0651,0.0699,0.0711,0.0722,0.0762,0.0768,0.0815,0.0822,0.0831,0.0881,0.0887,0.09,0.0877,0.0935,0.0936,0.0936,0.0972,0.0976,0.0978,0,0,0,0,0,0.0581,0.0608,0.0619,0.0627,0.0677,0.0699,0.0708,0.0743,0.0763,0.0785,0.0821,0.0822,0.0887,0.0884,0.0891,0.0905,0.0935,0.0935,0.0936,0.0971,0.0975,0.0978,0,0,0,0,0,0,0.0586,0.0617,0.063,0.0666,0.0685,0.0709,0.0737,0.0756,0.0804,0.0814,0.0839,0.0848,0.0888,0.089,0.0886,0.0921,0.0905,0.0908,0.093,0.0934,0.0937,0.094,0.0879,0,0,0,0,0,0.0595,0.0624,0.0646,0.0674,0.0688,0.0717,0.0738,0.0753,0.0785,0.0809,0.0846,0.0872,0.0891,0.091,0.0927,0.0957,0.0951,0.0964,0.0967,0.097,0.0976,0.097,0.0974,0.0938,0.0938,0.0938,0,0,0.0601,0.0622,0.0639,0.0676,0.0699,0.0725,0.0734,0.0762,0.079,0.0807,0.0877,0.0891,0.0901,0.0934,0.095,0.0942,0.0978,0.0971,0.0973,0.0978,0.0971,0.0975,0.0978,0.0939,0.0939,0.0939,0,0,0.061,0.065,0.0671,0.0695,0.0723,0.0742,0.0754,0.0792,0.0824,0.0876,0.0887,0.0914,0.0963,0.0967,0.0973,0.1001,0.0994,0.1003,0.1027,0.1022,0.1025,0.1027,0.1032,0.1034,0.1005,0.1005,0.1005,0,0.0616,0.0649,0.068,0.0705,0.0726,0.0753,0.0775,0.081,0.0861,0.0882,0.0903,0.096,0.0975,0.0992,0.1008,0.1009,0.101,0.1016,0.1027,0.1029,0.1031,0.1034,0.1037,0.1007,0.1007,0.1006,0.1006,0,0.0629,0.0669,0.0685,0.073,0.0759,0.078,0.0818,0.0858,0.09,0.0926,0.0971,0.0995,0.1027,0.1028,0.1037,0.1052,0.1049,0.1032,0.102,0.1037,0.1039,0.1041,0.1009,0.1009,0.1008,0.1008,0,0,0.0603,0.0679,0.0688,0.0716,0.0773,0.0792,0.0843,0.0885,0.0921,0.0971,0.101,0.1046,0.1063,0.1069,0.1072,0.1071,0.1094,0.1068,0.1067,0.1077,0.1096,0.1089,0.109,0.1082,0.1083,0.1083,0.1095,0,0.0603,0.0653,0.0692,0.0746,0.0776,0.0821,0.0868,0.0909,0.0959,0.1009,0.1022,0.1068,0.1076,0.1098,0.11,0.1099,0.11,0.1093,0.1074,0.1073,0.1068,0.1092,0.1084,0.1097,0.1097,0.1097,0.1097,0,0.0596,0.0636,0.0686,0.076,0.0777,0.0817,0.0888,0.0931,0.0992,0.103,0.1069,0.1095,0.1123,0.1119,0.1131,0.1131,0.1125,0.1112,0.1112,0.1093,0.1069,0.1072,0.11,0.11,0.11,0.11,0.11,0,0.0555,0.063,0.0673,0.0699,0.0784,0.0819,0.0867,0.0938,0.0979,0.1049,0.1085,0.112,0.1152,0.1145,0.1165,0.115,0.1165,0.1133,0.1112,0.1112,0.1097,0.1094,0.1126,0.1125,0.1125,0.1125,0.1125,0,0.0537,0.0573,0.0664,0.0689,0.0741,0.0808,0.0869,0.0921,0.0993,0.1037,0.11,0.1134,0.1163,0.1185,0.1174,0.117,0.1178,0.1126,0.1116,0.1113,0.1112,0.1099,0.1096,0.1126,0.1126,0.1126,0.1126,0,0.0491,0.055,0.0599,0.0693,0.0726,0.0765,0.0869,0.0908,0.0991,0.1048,0.1075,0.1156,0.12,0.1222,0.1221,0.1191,0.1174,0.1163,0.1185,0.1174,0.1117,0.1115,0.113,0.1129,0.1129,0.1129,0.1129,0,0.0474,0.0496,0.0591,0.0623,0.0673,0.0746,0.0794,0.0893,0.0935,0.1052,0.1064,0.1151,0.1197,0.1194,0.1219,0.1211,0.1192,0.1177,0.1125,0.113,0.1118,0.1117,0.1115,0.1129,0.1129,0.1129,0.1129,0,0.0433,0.0469,0.0512,0.058,0.0637,0.0694,0.0773,0.0802,0.0911,0.0986,0.1048,0.1093,0.1147,0.1172,0.1198,0.1176,0.1183,0.1175,0.1173,0.1124,0.1129,0.1117,0.1116,0.1129,0.1129,0.1129,0.1129,0,0.0398,0.0411,0.0472,0.0529,0.0594,0.0639,0.0687,0.0756,0.0816,0.0948,0.0964,0.1058,0.1133,0.1155,0.1165,0.1174,0.1142,0.1088,0.109,0.1091,0.1077,0.1078,0.106,0,0,0,0,0,0.0361,0.0377,0.042,0.0481,0.0544,0.0584,0.0672,0.0722,0.0827,0.0851,0.0913,0.0966,0.1029,0.1073,0.1073,0.114,0.1137,0.1135,0.1072,0.1127,0.1127,0.1117,0,0,0,0,0,0,0.0334,0.0369,0.0398,0.0438,0.047,0.0532,0.0586,0.0653,0.0679,0.0786,0.0823,0.0908,0.0974,0.1013,0.105,0.1065,0.1009,0.1196,0.1194,0.1126,0.1127,0.1127,0.1117,0,0,0,0,0]},{"header":{"parameterUnit":"m.s-1","parameterCategory":2,"la1":30.2991,"la2":30.254,"lo1":-89.0895,"lo2":-89.0444,"dy":0.0017,"dx":0.0017,"nx":28,"ny":28,"refTime":"2023-07-28T21:00:00:Z","depth":"4","parameterNumber":3,"parameterNumberName":"V-component_of_CURRENTS"},"data":[0,0,0,0,0,0,0,0,0,0,0,0,0,0,0,0,0,0,0,0,0,0,0,0,0,0,0,0,0,0,0,0,0,0,0,0,0,0,0,0,0,0,0,0,0,0,0,0,0,0,0,0,0,0,0,0,0,0,0.0048,0.0047,0,-0.0032,-0.0033,-0.0034,-0.0072,-0.0072,-0.0072,-0.0071,-0.0154,-0.0157,-0.0159,0,0,0,0,0,0,0,0,0,0,0,0,0,0.0108,0.0107,0.0048,0.0047,0.0047,-0.0032,-0.0033,-0.0035,-0.0072,-0.0072,-0.0072,-0.0071,-0.0153,-0.0156,-0.0159,0,0,0,0,0,0,0,0,0,0,0,0,0,0.0057,0.0107,0.0048,0.0021,0.0018,-0.0031,-0.0033,-0.0035,-0.0072,-0.0072,-0.0071,-0.0071,-0.0152,-0.0156,-0.016,-0.0193,0,0,-0.0171,-0.0173,0,0,0,0,0,0,0,0,0.006,0.0055,0.0025,0.0023,0.0019,-0.0039,-0.0042,-0.0087,-0.0073,-0.0042,-0.0071,-0.0071,-0.0114,-0.0121,-0.0142,-0.0197,-0.0201,-0.0172,-0.0174,-0.0175,-0.0177,0,0,0,0,0,0,0,0.0064,0.0058,0.0013,0.0025,0.0021,-0.0008,-0.0014,-0.0051,-0.0082,-0.0044,-0.0047,-0.005,-0.0116,-0.0138,-0.0144,-0.0202,-0.0171,-0.0175,-0.0177,-0.0179,-0.0309,-0.031,0,0,0,0,0,0,0.0083,0.0061,0.0016,0.0011,0.0045,-0.0009,-0.0016,-0.0023,-0.0082,-0.0089,-0.0051,-0.0052,-0.0132,-0.0139,-0.0147,-0.0221,-0.0175,-0.0179,-0.0181,-0.0307,-0.0309,-0.031,0,0,0,0,0,0,0.0084,0.0079,0.0019,0.0037,0.0028,-0.001,-0.0018,-0.0025,-0.0052,-0.0086,-0.0094,-0.0069,-0.0132,-0.0142,-0.0196,-0.0223,-0.0181,-0.0184,-0.0306,-0.0308,-0.0309,-0.0348,0,0,0,0,0,0,0.0086,0.008,0.0076,0.0038,0.0028,-0.0016,-0.0018,-0.0027,-0.0053,-0.0055,-0.0105,-0.0112,-0.0132,-0.0191,-0.02,-0.0227,-0.0187,-0.0304,-0.0307,-0.0309,-0.0346,-0.0351,-0.0356,0,0,0,0,0,0.0089,0.0076,0.0076,0.007,0.0025,-0.0016,-0.0026,-0.0052,-0.0054,-0.0073,-0.0111,-0.011,-0.0211,-0.0195,-0.0206,-0.0235,-0.0303,-0.0306,-0.0309,-0.0343,-0.035,-0.0356,0,0,0,0,0,0,0.0091,0.007,0.0069,0.0049,0.0021,-0.0021,-0.0042,-0.0056,-0.0102,-0.0104,-0.0135,-0.0146,-0.0203,-0.0213,-0.0194,-0.0277,-0.0254,-0.0258,-0.0276,-0.0283,-0.0288,-0.0288,-0.019,0,0,0,0,0,0.0095,0.0082,0.0056,0.0038,0.0026,-0.0007,-0.0027,-0.0044,-0.0084,-0.0103,-0.014,-0.0178,-0.0223,-0.0246,-0.0285,-0.0334,-0.034,-0.0356,-0.0361,-0.0365,-0.0372,-0.0402,-0.0411,-0.0319,-0.0319,-0.0319,0,0,0.0089,0.0078,0.0069,0.0039,0.0014,-0.002,-0.002,-0.0053,-0.0088,-0.0105,-0.0171,-0.0202,-0.0241,-0.03,-0.0325,-0.0311,-0.0396,-0.0369,-0.0372,-0.0377,-0.0406,-0.0415,-0.0423,-0.0321,-0.032,-0.032,0,0,0.0064,0.0064,0.004,0.0019,-0.0011,-0.0032,-0.004,-0.0085,-0.0111,-0.017,-0.0194,-0.0244,-0.0308,-0.0347,-0.0373,-0.043,-0.0425,-0.0433,-0.0462,-0.0491,-0.0499,-0.0506,-0.0529,-0.0538,-0.0433,-0.0433,-0.0433,0,0.0054,0.003,0.0024,-0.0006,-0.0024,-0.0037,-0.0072,-0.0107,-0.0166,-0.019,-0.0193,-0.03,-0.0335,-0.0408,-0.0433,-0.0444,-0.0451,-0.0435,-0.0498,-0.0505,-0.0511,-0.0533,-0.0542,-0.0435,-0.0435,-0.0435,-0.0434,0,0.0008,-0.0009,-0.0026,-0.0062,-0.0086,-0.0115,-0.0149,-0.018,-0.0204,-0.0238,-0.0309,-0.0363,-0.0421,-0.0442,-0.0463,-0.0527,-0.0516,-0.0502,-0.048,-0.0523,-0.0544,-0.0552,-0.0438,-0.0438,-0.0437,-0.0436,0,0,-0.0028,-0.0052,-0.0061,-0.0068,-0.0112,-0.0131,-0.0186,-0.0235,-0.026,-0.0322,-0.0369,-0.0462,-0.0476,-0.0506,-0.0533,-0.0567,-0.0629,-0.0556,-0.0557,-0.0577,-0.069,-0.0632,-0.0636,-0.0621,-0.0623,-0.0624,-0.0688,0,-0.0066,-0.0103,-0.012,-0.0161,-0.0176,-0.0197,-0.0241,-0.0281,-0.0319,-0.0367,-0.0422,-0.0477,-0.0503,-0.0527,-0.0573,-0.0612,-0.0653,-0.0613,-0.0648,-0.065,-0.0591,-0.0645,-0.0629,-0.0694,-0.0696,-0.0697,-0.0698,0,-0.0113,-0.0122,-0.0158,-0.0175,-0.0187,-0.0218,-0.0259,-0.0301,-0.0364,-0.0391,-0.0453,-0.0489,-0.0572,-0.0569,-0.0673,-0.0642,-0.0678,-0.0703,-0.0705,-0.0643,-0.0608,-0.0642,-0.0714,-0.0713,-0.0711,-0.071,-0.0709,0,-0.0109,-0.0151,-0.0166,-0.0176,-0.0207,-0.0229,-0.0254,-0.0308,-0.0326,-0.0402,-0.0413,-0.0516,-0.0549,-0.0624,-0.0689,-0.0683,-0.0776,-0.077,-0.0755,-0.0751,-0.0765,-0.0756,-0.0841,-0.0841,-0.0841,-0.0841,-0.0841,0,-0.0129,-0.0145,-0.0158,-0.0163,-0.0174,-0.0212,-0.0237,-0.0272,-0.0317,-0.0327,-0.0418,-0.0437,-0.056,-0.0623,-0.0693,-0.0749,-0.0784,-0.0775,-0.0769,-0.078,-0.0773,-0.0771,-0.0762,-0.0843,-0.0843,-0.0842,-0.0842,0,-0.0118,-0.0133,-0.014,-0.0163,-0.0166,-0.0173,-0.0194,-0.0206,-0.0257,-0.027,-0.0288,-0.0382,-0.0467,-0.0578,-0.0692,-0.073,-0.0801,-0.0808,-0.0814,-0.0804,-0.0759,-0.0752,-0.0814,-0.0813,-0.0812,-0.0811,-0.081,0,-0.0111,-0.0113,-0.0115,-0.0105,-0.0114,-0.0123,-0.0122,-0.0167,-0.0171,-0.0221,-0.0217,-0.0308,-0.0374,-0.0492,-0.0624,-0.0762,-0.0767,-0.0805,-0.0798,-0.0772,-0.076,-0.0754,-0.0748,-0.0808,-0.0808,-0.0807,-0.0807,0,-0.0092,-0.0093,-0.0088,-0.0061,-0.0053,-0.0042,-0.0047,-0.0035,-0.0078,-0.0115,-0.0133,-0.0217,-0.0309,-0.0448,-0.0555,-0.0652,-0.0788,-0.0794,-0.0797,-0.079,-0.0765,-0.0753,-0.0748,-0.0803,-0.0804,-0.0804,-0.0804,0,-0.0071,-0.0057,-0.0044,-0.002,0.0,0.0024,0.0019,0.0021,0.0013,-0.0035,-0.0036,-0.0157,-0.0243,-0.0389,-0.0488,-0.0583,-0.0606,-0.0622,-0.0635,-0.0641,-0.057,-0.0511,-0.0478,0,0,0,0,0,-0.0055,-0.0037,-0.0006,0.0021,0.0046,0.0052,0.0064,0.0053,0.003,0.0044,0.0007,-0.0073,-0.0222,-0.0308,-0.039,-0.0485,-0.0641,-0.0583,-0.0669,-0.078,-0.0785,-0.0726,0,0,0,0,0,0,-0.0047,-0.0019,0.0,0.005,0.0075,0.0099,0.0107,0.0095,0.0096,0.0065,-0.0016,-0.0069,-0.0229,-0.0168,-0.0384,-0.042,-0.0477,-0.067,-0.0671,-0.0778,-0.0782,-0.0786,-0.0727,0,0,0,0,0]}]]